Track COSMOS 2516 (GLONASS) now! COSMOS 2516 (GLONASS) is classified as:
1 41554U 16032A 21018.77325043 .00000009 00000-0 00000-0 0 9993 2 41554 64.0398 259.3650 0011849 219.3988 91.4723 2.13106604 36125